Theta_e
319 319 320 320 319 319 319 320 320 320 320 320 320 319 318 320 319 315 306 312 315 333 326 314 311 310 310 309 311 308 307 302 302 302 309 325 324 327 328 324 328 332 334 339 345
318 318 319 319 319 318 319 319 319 320 320 319 320 319 318 320 314 311 324 332 336 334 312 312 311 311 309 307 309 309 306 303 306 306 309 325 324 325 323 322 324 330 339 344 343
316 317 318 319 318 318 318 318 319 319 319 319 319 319 319 320 311 316 334 333 334 330 314 315 314 311 307 307 306 305 306 305 306 306 308 324 323 327 323 319 323 327 337 341 342
316 316 317 318 318 318 318 318 318 318 318 318 318 319 320 317 306 317 338 335 338 316 313 312 310 305 304 304 305 303 304 305 307 309 320 323 326 324 324 322 328 333 340 341 341
315 316 316 317 317 317 317 318 317 317 316 317 318 319 315 306 310 329 342 340 320 312 312 311 308 306 304 305 305 304 304 304 306 305 322 325 321 322 324 327 333 336 339 339 341
316 315 316 316 316 316 316 316 316 316 315 316 319 319 314 306 319 329 324 313 311 311 310 310 309 308 307 305 305 306 305 305 305 311 316 315 319 322 325 330 331 334 336 338 340
315 315 315 315 315 315 315 315 314 315 316 317 319 319 311 308 320 320 313 309 311 311 309 310 311 309 308 306 306 306 304 304 304 308 311 317 314 315 323 329 329 331 334 336 339
315 315 315 315 315 315 315 314 314 317 317 318 321 319 304 313 319 313 312 311 311 311 311 313 312 310 308 308 305 303 303 301 304 305 312 311 305 317 327 328 327 330 329 330 333
315 314 314 314 315 315 314 313 316 319 320 321 320 317 308 319 314 315 313 311 311 311 312 313 310 306 307 304 302 301 299 301 302 310 313 311 310 318 326 328 327 329 329 329 328
314 314 314 313 314 313 312 313 319 320 320 320 318 309 313 312 316 314 316 314 312 312 310 309 308 306 304 303 297 299 300 301 301 308 313 312 313 319 323 325 326 328 330 330 329
315 314 313 313 313 311 311 310 310 309 308 308 307 305 308 314 318 315 315 313 313 311 306 306 304 301 303 303 303 303 302 301 302 313 313 312 313 316 319 323 324 326 329 331 332
314 314 314 313 312 311 308 308 305 305 299 307 307 309 312 314 309 311 315 310 308 304 305 304 302 305 304 303 302 302 301 300 308 313 315 312 312 315 317 320 322 323 325 326 329
314 313 313 312 311 306 304 309 308 308 302 306 309 309 311 313 309 309 313 310 307 304 305 303 304 306 304 302 301 302 302 303 307 313 315 314 312 315 315 317 320 324 327 329 330
314 313 313 310 304 303 303 309 307 308 300 301 304 309 310 311 307 313 314 311 307 304 305 304 306 304 303 304 305 302 304 307 309 308 303 310 300 308 316 316 316 321 327 328 332
313 313 313 309 303 301 303 306 309 307 288 302 305 312 309 308 308 308 312 311 305 305 305 303 303 303 303 305 307 303 307 310 309 303 306 306 303 306 309 311 313 318 324 328 332
313 313 311 305 304 305 306 306 310 298 288 301 306 304 304 305 305 307 309 312 310 305 305 304 307 306 307 306 307 307 306 306 305 304 297 301 304 304 308 311 314 318 322 327 331
312 311 307 306 302 305 306 308 299 291 302 300 300 302 304 303 303 304 305 304 302 299 300 304 304 308 309 305 307 307 306 298 297 298 297 304 302 306 310 312 315 317 322 328 333
310 307 305 306 307 306 304 304 293 297 299 304 300 301 299 302 303 302 302 301 303 302 300 300 298 306 309 308 305 305 307 299 292 294 297 304 300 306 312 317 317 320 324 329 334
306 303 303 306 306 306 306 296 296 297 301 298 301 298 299 301 302 302 302 301 303 305 301 300 301 307 307 308 309 303 303 305 301 299 299 302 306 309 314 315 316 319 321 326 333
301 301 302 309 310 308 303 295 298 304 303 301 296 298 296 299 300 301 300 303 303 305 308 304 300 306 305 309 306 307 306 301 303 295 293 299 301 304 308 312 315 317 319 322 329
300 299 305 311 310 306 296 297 300 304 304 300 297 297 299 300 301 300 301 303 304 304 307 308 305 304 308 306 303 302 302 301 303 301 296 295 301 310 309 310 314 318 320 323 327
297 297 302 311 303 302 299 301 301 303 306 304 303 302 300 302 301 301 301 303 306 307 303 308 307 302 302 307 308 305 303 305 300 297 298 299 300 308 310 309 312 314 316 318 323
295 295 306 310 298 301 303 303 305 305 304 304 303 304 305 303 301 305 305 308 310 306 306 308 306 300 301 305 308 306 303 303 304 305 300 296 299 307 310 313 314 312 313 315 318
296 293 303 307 304 302 302 302 301 308 305 306 305 307 305 303 305 304 306 309 311 309 314 315 305 305 299 302 307 303 303 304 308 303 299 300 302 307 310 312 315 315 317 319 321
297 294 299 299 300 302 302 303 301 300 307 306 304 304 303 302 304 305 308 308 309 313 309 314 305 303 303 303 304 303 303 303 303 304 301 302 302 306 309 315 316 318 319 320 321
293 298 301 299 301 300 299 300 300 301 302 302 302 305 305 304 306 304 308 308 307 309 308 310 304 306 303 304 304 302 303 304 303 302 303 303 303 309 317 318 317 318 318 319 321
299 300 302 297 300 299 301 300 301 303 305 305 305 305 305 307 310 309 310 312 311 309 308 308 306 303 300 302 302 298 303 303 304 305 305 301 305 313 314 315 317 318 319 318 320
Wind_Speed
17 17 16 16 17 17 17 17 17 16 16 15 14 14 13 13 13 3 6 2 3 7 6 7 4 4 1 3 0 2 1 4 2 1 1 4 7 4 3 5 3 3 3 6 18
15 17 17 17 17 18 17 18 18 16 15 15 13 13 12 12 4 7 2 6 8 10 6 7 5 3 2 2 1 1 1 2 0 1 1 7 5 6 4 6 3 4 7 18 18
15 16 17 18 18 18 18 17 18 17 15 15 13 12 11 9 4 2 7 10 7 6 4 4 6 2 2 1 2 1 1 1 2 4 2 8 5 1 3 4 7 8 16 18 17
15 16 18 18 19 19 19 18 18 20 17 15 12 10 10 1 2 1 6 9 10 6 5 6 5 4 3 3 2 2 1 3 3 4 5 8 6 3 5 4 2 10 18 18 15
17 17 18 19 19 19 20 19 19 19 16 13 10 7 2 2 4 1 8 9 7 6 4 5 4 4 5 3 3 3 2 0 4 2 5 9 4 4 5 2 6 14 17 16 14
17 18 18 18 20 20 21 20 18 16 14 11 6 4 1 3 2 8 8 7 5 5 4 3 3 3 4 2 1 2 1 2 2 5 4 5 2 3 5 4 9 14 14 12 12
17 19 20 21 22 23 23 22 19 17 12 7 4 1 2 3 0 7 8 3 5 2 5 3 4 2 3 3 1 1 6 3 4 5 1 4 3 3 9 3 5 10 10 10 10
18 19 21 22 23 24 24 23 20 14 1 5 6 3 6 1 3 6 5 3 2 3 1 4 2 4 1 2 2 2 3 7 2 3 0 5 2 3 5 2 6 9 9 10 10
19 20 21 22 25 25 25 22 9 3 6 7 3 4 5 5 4 5 6 4 5 3 1 5 2 3 3 2 2 3 5 8 7 2 3 3 1 4 3 1 4 7 6 7 8
19 20 22 23 25 25 26 7 2 2 3 3 3 1 4 1 2 4 3 2 3 5 5 2 3 3 3 4 5 4 5 3 3 4 1 2 0 2 3 2 4 5 5 6 5
19 20 23 24 25 25 13 2 2 1 1 5 2 4 9 6 2 4 4 5 2 3 4 2 3 6 7 5 4 5 4 2 2 4 2 2 2 1 3 3 6 6 9 9 7
20 20 23 25 26 23 7 5 7 2 11 7 12 8 8 4 3 4 7 5 3 4 4 3 3 5 4 6 3 3 4 5 4 7 1 2 1 3 3 2 4 6 11 9 7
18 21 23 27 26 4 3 7 3 2 5 5 6 4 4 10 6 8 10 5 4 5 6 3 5 7 6 6 6 6 7 11 8 7 8 4 2 3 3 3 5 7 10 8 8
18 17 19 29 1 6 3 3 8 4 3 4 3 4 6 5 5 3 8 4 3 9 6 4 3 5 8 7 8 4 9 11 15 7 3 2 2 6 6 5 5 9 9 6 6
19 18 15 8 6 5 3 8 6 4 5 1 2 2 0 6 6 4 2 4 5 6 5 4 7 7 6 3 5 6 9 10 10 6 5 6 4 1 3 9 11 12 10 9 5
20 20 18 1 3 8 11 12 3 2 5 3 2 4 6 2 3 3 4 2 1 3 2 4 1 4 2 5 3 15 11 9 5 3 6 4 7 3 4 5 7 16 11 11 5
22 21 13 2 4 7 9 3 1 4 5 5 3 3 7 6 3 4 7 9 5 5 4 2 3 2 3 10 7 3 5 3 4 4 2 3 5 5 6 8 11 14 12 10 7
24 23 4 5 6 9 3 2 5 3 4 3 5 6 8 6 4 3 7 10 4 1 3 4 7 4 3 3 8 6 4 4 5 5 3 5 4 4 5 6 7 7 8 9 10
22 4 3 3 4 3 2 4 5 4 4 7 8 2 5 5 3 4 7 7 6 11 4 4 3 2 2 4 3 5 4 4 7 1 4 1 3 3 2 2 5 10 9 12 11
7 5 4 5 4 2 1 4 3 3 4 3 4 3 1 5 6 8 8 6 4 11 3 3 4 3 5 3 13 2 9 5 2 5 4 2 3 1 1 4 6 9 12 10 11
2 4 2 3 1 1 3 4 3 4 1 3 3 5 3 2 5 5 6 3 5 8 6 4 0 4 3 0 8 5 5 7 5 3 3 3 2 1 2 5 9 11 11 12 13
3 3 2 1 2 2 3 4 1 1 2 4 3 6 4 3 3 6 7 3 3 10 10 3 3 4 3 4 1 1 5 4 3 4 3 2 3 1 5 4 4 8 9 10 12
4 4 1 3 3 2 2 2 1 2 3 2 3 5 3 2 1 2 3 1 3 9 11 9 3 5 5 3 2 3 4 5 7 3 6 4 3 1 7 8 8 9 6 6 6
3 3 2 2 2 2 1 1 3 2 5 4 4 3 3 2 2 1 1 1 1 2 4 8 3 4 8 7 5 6 7 7 4 4 8 3 1 2 6 8 11 11 12 10 8
2 1 2 2 2 2 2 2 1 3 3 4 1 5 4 2 2 1 0 1 3 4 3 3 4 3 3 3 4 9 12 9 4 10 4 7 5 4 5 6 7 8 9 10 11
2 2 0 3 4 3 1 1 2 3 3 1 3 7 3 4 2 1 2 0 1 3 2 2 4 4 3 4 7 6 6 6 5 7 5 5 5 1 1 1 4 7 7 9 9
1 1 3 1 3 2 1 2 1 6 3 7 8 4 3 3 6 4 2 4 3 1 3 3 6 2 6 2 5 3 7 6 4 4 6 4 2 3 3 4 3 4 5 6 6
Wind_Direction
354 350 343 340 336 332 333 330 326 324 330 334 331 324 328 324 313 218 236 222 193 158 154 133 98 100 121 112 123 175 128 92 113 200 80 146 189 129 105 115 78 80 144 134 141
354 347 340 337 333 331 331 327 322 321 328 335 329 324 331 332 302 248 226 151 162 157 134 145 119 135 116 103 107 287 105 154 176 251 246 159 215 147 188 135 143 104 104 129 146
350 347 340 333 333 328 326 325 318 321 331 333 327 329 327 324 285 95 154 178 194 183 124 109 110 104 109 140 128 132 58 209 360 242 263 154 159 202 200 168 184 175 147 150 159
346 348 340 331 329 325 322 319 319 321 329 329 325 327 316 272 107 19 164 173 188 153 135 125 107 118 129 151 145 216 352 257 327 130 150 165 135 209 226 97 21 152 153 155 168
340 344 339 329 325 324 318 313 314 317 320 320 317 328 312 256 264 94 136 144 150 156 157 127 121 145 145 158 166 174 80 189 295 153 131 144 182 270 217 55 59 142 152 162 169
338 335 333 329 324 322 316 312 313 312 312 309 300 309 312 259 83 154 153 156 178 157 141 143 139 189 116 145 255 104 125 221 231 139 153 158 143 296 60 21 96 146 158 165 176
337 333 332 331 326 322 317 316 314 310 299 290 243 99 267 259 196 169 173 204 179 175 146 186 139 179 149 135 5 53 108 112 88 142 202 138 123 251 342 322 128 144 150 158 184
338 333 330 329 323 321 321 320 314 314 116 200 165 101 256 100 139 155 200 145 192 241 116 142 147 104 351 128 62 62 115 150 135 184 102 258 178 345 11 230 161 155 138 143 142
337 332 328 326 321 322 325 317 323 71 110 178 137 52 269 134 215 176 199 163 158 186 237 118 89 69 120 142 131 59 148 144 139 49 141 233 253 31 30 10 208 179 165 171 146
336 331 326 325 322 325 323 297 122 145 151 232 98 255 250 158 169 154 204 173 155 138 127 155 72 123 115 189 176 151 133 90 74 50 129 115 152 23 12 289 266 275 237 212 201
336 332 326 324 324 328 331 247 316 137 335 268 203 248 284 294 223 191 175 151 133 70 148 42 171 210 197 197 147 142 112 135 71 25 139 80 181 10 353 258 251 267 265 255 255
332 333 328 322 325 328 286 63 83 352 301 248 248 246 258 293 289 177 167 173 159 156 144 157 217 212 159 172 143 111 140 150 108 2 141 142 113 309 272 263 274 277 274 268 262
330 332 331 327 324 9 338 119 33 230 249 289 212 188 215 176 214 185 182 148 155 162 191 185 136 157 183 172 169 178 179 170 155 117 81 142 247 257 196 244 275 270 268 290 301
326 331 334 323 43 337 285 100 327 203 284 270 233 255 164 195 199 181 179 158 186 201 176 239 159 206 182 196 193 156 202 160 142 163 153 360 259 240 242 234 279 277 277 304 324
323 325 331 323 306 287 21 329 312 206 310 86 168 92 237 193 134 185 208 144 204 182 194 127 179 170 193 175 186 90 143 137 146 98 143 188 264 199 288 242 234 258 266 282 296
319 321 336 164 238 261 318 305 197 298 257 340 112 147 175 212 115 116 158 124 101 190 246 256 244 241 130 82 92 146 107 87 84 139 220 146 232 243 225 247 221 245 237 253 247
316 315 309 244 265 333 316 268 213 226 325 5 0 10 212 167 152 150 167 184 195 171 212 207 189 199 180 99 108 100 136 122 181 192 237 132 182 302 283 270 232 228 220 227 228
317 314 198 225 282 325 293 106 223 282 297 320 311 287 213 166 182 134 149 199 203 139 149 176 156 159 155 115 173 170 190 181 204 210 187 148 221 132 296 290 237 225 226 222 223
316 320 278 253 230 179 195 173 212 207 310 311 325 207 183 204 166 159 178 202 214 188 220 166 113 95 36 122 183 146 168 75 104 59 235 48 231 212 2 131 193 202 206 222 225
324 323 284 320 161 227 176 240 229 183 298 321 344 331 267 174 173 190 178 185 212 196 204 164 122 89 148 106 52 212 132 148 116 161 214 156 281 296 72 244 223 227 232 232 234
315 312 121 69 195 228 199 218 259 241 291 332 306 295 282 229 195 188 200 188 218 170 198 145 323 133 183 115 152 145 137 67 95 345 164 172 183 269 320 266 249 237 241 240 236
329 272 46 234 281 317 195 203 260 292 251 265 241 244 252 304 201 205 216 253 193 152 177 155 126 146 77 329 208 96 129 131 164 170 51 337 170 355 317 314 256 271 273 276 261
316 282 358 277 238 222 268 236 244 267 267 279 261 232 211 294 310 221 194 196 186 178 164 170 179 133 117 149 177 129 98 100 99 123 174 190 142 92 324 340 345 324 336 325 317
286 296 308 43 25 308 330 255 262 268 255 244 272 299 283 264 241 244 204 15 118 182 59 100 115 182 189 175 141 148 138 149 134 164 154 214 143 208 347 340 340 343 347 0 14
346 53 29 349 76 352 303 338 280 304 270 244 219 238 287 276 233 163 102 313 72 150 74 145 147 119 44 132 147 146 151 161 141 144 182 151 214 306 333 330 342 342 6 22 31
313 331 21 300 291 265 340 105 280 312 256 283 227 337 303 253 306 239 170 241 64 111 84 21 129 131 86 68 139 142 153 148 128 157 134 163 243 94 118 157 34 24 25 39 45
117 173 285 20 334 260 76 331 261 351 258 257 310 292 301 26 330 342 24 72 83 135 110 80 135 147 142 70 127 160 203 189 144 163 154 191 95 178 164 129 80 58 58 65 79